Swansboro, NC

6:35 PM EDT on June 28, 2017 (GMT -0400)
Bogue McAlf

Weather History for KNJM - January, 2013

Change the Weather History Date:

Sunday, January 6, 2013

  Actual Average (KNKT) Record (KNKT)
Temperature  
Mean Temperature 44 °F -  
Max Temperature 48 °F 55 °F 73 °F (1998)
Min Temperature 39 °F 34 °F 15 °F (1999)
Degree Days  
Heating Degree Days 22    
Moisture  
Dew Point 40 °F    
Average Humidity 83    
Maximum Humidity 93    
Minimum Humidity 66    
Precipitation  
Precipitation 0.01 in - - ()
Sea Level Pressure  
Sea Level Pressure 30.19 in    
Wind  
Wind Speed 2 mph (NW)    
Max Wind Speed 8 mph    
Max Gust Speed -    
Visibility 10 miles    
Events Rain    
Averages and records for this station are not official NWS values.
T = Trace of Precipitation, MM = Missing Value Source: NWS Daily Summary

Daily Weather History Graph

Daily Weather History Graph

Search for Another Location

Airport or City:

Trip Planner

Search our weather history database for the weather conditions in past years. The results will help you decide how hot, cold, wet, or windy it might be!

Date:

Astronomy

Jan. 06, 2013 Rise Set
Actual Time 7:15 AM EST 5:12 PM EST
Civil Twilight 6:48 AM EST 5:40 PM EST
Nautical Twilight 6:16 AM EST 6:11 PM EST
Astronomical Twilight 5:46 AM EST 6:42 PM EST
Moon 1:33 AM EST (1/6) 12:33 PM EST (1/6)
Length of Visible Light 10h 52m
Length of Day
9h 56m
Waning Crescent, 33% of the Moon is Illuminated
Jan 6
Waning Crescent
Jan 11
New
Jan 18
First Quarter
Jan 26
Full
Feb 3
Last Quarter

Hourly Weather History & Observations

Time (EST) Temp. Windchill Dew Point Humidity Pressure Visibility Wind Dir Wind Speed Gust Speed Precip Events Conditions
12:57 AM 39.9 °F 36.7 °F 36.0 °F 86% 30.31 in 10.0 mi WNW 4.6 mph - N/A   Clear
1:57 AM 41.0 °F - 35.1 °F 79% 30.28 in 10.0 mi Calm Calm - N/A   Clear
2:57 AM 39.9 °F - 36.0 °F 86% 30.26 in 10.0 mi Calm Calm - N/A   Clear
3:57 AM 41.0 °F 38.0 °F 37.0 °F 86% 30.26 in 10.0 mi SW 4.6 mph - N/A   Mostly Cloudy
4:57 AM 42.1 °F - 37.0 °F 82% 30.24 in 10.0 mi Calm Calm - 0.00 in   Overcast
5:57 AM 43.0 °F - 37.9 °F 82% 30.25 in 10.0 mi Calm Calm - N/A   Overcast
6:57 AM 43.0 °F - 39.0 °F 86% 30.25 in 10.0 mi Calm Calm - N/A   Overcast
7:57 AM 44.1 °F - 39.0 °F 82% 30.23 in 10.0 mi Calm Calm - N/A   Overcast
8:57 AM 45.0 °F - 39.9 °F 82% 30.24 in 10.0 mi Calm Calm - N/A   Overcast
9:57 AM 46.9 °F - 39.0 °F 74% 30.25 in 10.0 mi Calm Calm - N/A   Overcast
10:57 AM 48.0 °F - 37.9 °F 68% 30.25 in 10.0 mi Calm Calm - N/A   Overcast
11:57 AM 46.9 °F - 36.0 °F 66% 30.20 in 10.0 mi NNW 3.5 mph - N/A   Overcast
12:57 PM 46.9 °F - 39.9 °F 77% 30.17 in 10.0 mi WNW 4.6 mph - 0.00 in Rain Light Rain
1:57 PM 46.9 °F - 41.0 °F 80% 30.16 in 10.0 mi WNW 6.9 mph - 0.00 in   Overcast
2:57 PM 46.9 °F - 41.0 °F 80% 30.14 in 10.0 mi NW 3.5 mph - N/A   Overcast
3:06 PM 46.4 °F 44.3 °F 41.0 °F 81% 30.14 in 10.0 mi Variable 4.6 mph - N/A   Overcast
3:31 PM 46.4 °F - 42.8 °F 87% 30.13 in 10.0 mi Calm Calm - N/A   Overcast
3:57 PM 48.0 °F - 42.1 °F 80% 30.14 in 10.0 mi Calm Calm - N/A   Overcast
4:57 PM 46.9 °F - 41.0 °F 80% 30.13 in 10.0 mi Calm Calm - N/A   Overcast
5:57 PM 46.9 °F - 42.1 °F 83% 30.13 in 10.0 mi NW 3.5 mph - N/A   Overcast
6:57 PM 46.0 °F - 43.0 °F 89% 30.12 in 10.0 mi Calm Calm - N/A   Overcast
7:57 PM 46.9 °F - 44.1 °F 90% 30.11 in 10.0 mi Calm Calm - 0.00 in Rain Light Rain
8:57 PM 46.9 °F - 44.1 °F 90% 30.13 in 10.0 mi NNW 3.5 mph - 0.01 in   Overcast
9:28 PM 46.4 °F - 44.6 °F 93% 30.12 in 10.0 mi Calm Calm - N/A   Overcast
9:57 PM 46.0 °F - 44.1 °F 93% 30.14 in 10.0 mi Calm Calm - N/A   Overcast
10:57 PM 46.0 °F 44.8 °F 44.1 °F 93% 30.14 in 10.0 mi NNW 3.5 mph - N/A   Overcast
11:52 PM 46.4 °F 42.4 °F 42.8 °F 87% 30.14 in 10.0 mi NNW 8.1 mph - N/A   Overcast
11:57 PM 46.0 °F 41.9 °F 43.0 °F 89% 30.15 in 10.0 mi NW 8.1 mph - N/A   Overcast